This demonstration page uses our WeatherBlox Daily Observations layout. Learn more.

Left ArrowRight Arrow

Hourly Observations for May 17, 2015

Temp ( °F °C ) Dew Point ( °F °C ) Humidity (%) Winds ( mph kmh ) Pressure ( in mb ) Visibility ( mi km ) Precip ( " mm )
12:53 am 00:53 Clear 55 12.8 51 10.6 87 87 SE 9 15 29.56 1001 10 16 0.00 0.00
1:53 am 01:53 Clear 55 12.8 52 11.1 90 90 SE 13 20 29.58 1002 10 16 0.00 0.00
2:53 am 02:53 Clear 54 12.2 52 11.1 93 93 SE 10 17 29.56 1001 10 16 0.00 0.00
3:07 am 03:07 Partly Cloudy 55 12.8 53 11.7 93 93 SSE 14 22 29.62 1003 8 13 0.00 0.00
3:16 am 03:16 Mostly Cloudy with Mist and Fog 55 13 54 12 94 94 SSE 12 19 29.62 1003 4 6 0.00 0.00
3:24 am 03:24 Cloudy with Mist and Fog 55 13 54 12 94 94 S 7 11 29.62 1003 2 3 0.00 0.00
3:33 am 03:33 Cloudy 54 12 54 12 100 100 SSW 8 13 29.62 1003 10 16 0.00 0.00
3:53 am 03:53 Cloudy 55 12.8 53 11.7 93 93 S 9 15 29.60 1003 10 16 0.00 0.00
4:53 am 04:53 Cloudy 53 11.7 52 11.1 96 96 W 9 15 29.59 1002 10 16 0.00 0.00
5:26 am 05:26 Cloudy 54 12 52 11 94 94 WNW 6 9 29.59 1002 10 16 0.00 0.00
5:53 am 05:53 Cloudy with Mist and Fog 54 12.2 51 10.6 90 90 Calm 29.58 1002 6 10 0.00 0.00
6:09 am 06:09 Cloudy with Mist and Fog 53 11.7 52 11.1 96 96 E 3 6 29.62 1003 3 4 0.00 0.00
6:27 am 06:27 Cloudy with Mist and Fog 53 11.7 52 11.1 96 96 Calm 29.62 1003 3 5 0.00 0.00
6:42 am 06:42 Cloudy with Mist and Fog 54 12 52 11 94 94 Calm 29.62 1003 5 8 0.00 0.00
6:53 am 06:53 Cloudy with Mist and Fog 54 12.2 53 11.7 97 97 Calm 29.60 1002 5 8 0.00 0.00
7:00 am 07:00 Cloudy with Mist and Fog 54 12.2 53 11.7 97 97 Calm 29.62 1003 6 10 0.00 0.00
7:35 am 07:35 Cloudy with Mist and Fog 54 12.2 53 11.7 97 97 Calm 29.65 1004 2 3 0.00 0.00
7:51 am 07:51 Cloudy with Mist and Fog 54 12 54 12 100 100 WSW 3 6 29.65 1004 3 5 0.00 0.00
7:52 am 07:52 Cloudy with Mist and Fog 54 12.2 53 11.7 97 97 WSW 5 7 29.63 1003 3 5 0.00 0.00
8:12 am 08:12 Cloudy 55 13 54 12 94 94 WSW 6 9 29.65 1004 10 16 0.00 0.00
8:53 am 08:53 Mostly Cloudy 58 14.4 53 11.7 84 84 SW 5 7 29.62 1003 10 16 0.00 0.00
9:30 am 09:30 Cloudy 57 14 54 12 88 88 WSW 8 13 29.65 1004 10 16 0.00 0.00
9:53 am 09:53 Mostly Cloudy 59 15 53 11.7 81 81 WSW 9 15 29.64 1004 10 16 0.00 0.00
10:18 am 10:18 Partly Cloudy 62 16.7 54 12.2 75 75 WSW 10 17 29.65 1004 10 16 0.00 0.00
10:53 am 10:53 Sunny 66 18.9 54 12.2 65 65 WSW 17 28 29.65 1004 10 16 0.00 0.00
11:53 am 11:53 Sunny 72 22.2 51 10.6 48 48 W 25 41 29.67 1005 10 16 0.00 0.00
12:53 pm 12:53 Mostly Sunny 73 22.8 50 10 44 44 WNW 21 33 29.72 1006 10 16 0.00 0.00
1:53 pm 13:53 Mostly Sunny 76 24.4 51 10.6 42 42 W 15 24 29.73 1007 10 16 0.00 0.00
2:53 pm 14:53 Mostly Sunny 76 24.4 50 10 40 40 W 21 33 29.76 1008 10 16 0.00 0.00
3:53 pm 15:53 Mostly Sunny 78 25.6 49 9.4 36 36 W 16 26 29.76 1008 10 16 0.00 0.00
4:53 pm 16:53 Partly Cloudy 77 25 48 8.9 36 36 WSW 13 20 29.78 1009 10 16 0.00 0.03
5:27 pm 17:27 Mostly Cloudy with Nearby Thunderstorms 75 23.9 48 8.9 39 39 W 8 13 29.74 1007 10 16 0.00 0.00
5:35 pm 17:35 Mostly Cloudy with Thunderstorms 74 23.3 50 10 43 43 NW 12 19 29.74 1007 10 16 0.00 0.00
5:44 pm 17:44 Cloudy with Strong Thunderstorms 66 18.9 55 12.8 68 68 W 24 39 29.83 1010 2 3 0.18 4.57
5:53 pm 17:53 Cloudy with Thunderstorms 60 15.6 52 11.1 75 75 Calm 29.83 1010 1 2 0.28 7.11
5:56 pm 17:56 Cloudy with Thunderstorms 61 16.1 52 11.1 72 72 Calm 29.80 1009 3 5 0.00 0.03
6:10 pm 18:10 Mostly Cloudy 68 20 57 13.9 68 68 Calm 29.77 1008 10 16 0.00 0.03
6:49 pm 18:49 Partly Cloudy with Nearby Thunderstorms 66 19 61 16 83 83 N 6 9 29.80 1009 10 16 0.00 0.03
6:53 pm 18:53 Mostly Cloudy with Thunderstorms 67 19.4 59 15 76 76 WNW 14 22 29.86 1011 10 16 0.00 0.03
7:00 pm 19:00 Mostly Cloudy with Strong Thunderstorms 61 16 54 12 77 77 WNW 22 35 29.88 1012 1 1 0.00 0.00
7:10 pm 19:10 Cloudy with Strong Thunderstorms 61 16 55 13 83 83 N 9 15 29.85 1011 1 2 0.00 0.00
7:13 pm 19:13 Mostly Cloudy with Thunderstorms 61 16.1 56 13.3 84 84 NW 10 17 29.85 1011 3 5 0.39 9.91
7:29 pm 19:29 Mostly Cloudy with Nearby Thunderstorms 64 17.8 59 15 84 84 NNW 17 28 29.85 1011 10 16 0.39 9.91
7:40 pm 19:40 Mostly Cloudy 63 17 57 14 83 83 NNW 16 26 29.88 1012 10 16 0.00 0.00
7:53 pm 19:53 Mostly Cloudy 62 16.7 56 13.3 80 80 N 13 20 29.91 1013 10 16 0.39 9.91
8:53 pm 20:53 Mostly Clear 60 15.6 55 12.8 84 84 N 6 9 29.93 1013 10 16 0.02 0.51
9:53 pm 21:53 Clear 58 14.4 56 13.3 93 93 Calm 29.96 1015 10 16 0.00 0.00
10:53 pm 22:53 Clear 57 13.9 53 11.7 87 87 NW 9 15 29.99 1016 10 16 0.00 0.00
11:53 pm 23:53 Clear 57 13.9 52 11.1 83 83 NNW 10 17 30.01 1016 10 16 0.00 0.00

Powered by AerisWeather